Change the Weather History Date:

Tuesday, September 24, 2013

  Actual Average Record
Temperature  
Mean Temperature 70 °F -  
Max Temperature 82 °F 86 °F 103 °F (1991)
Min Temperature 60 °F 53 °F 42 °F (1972)
Cooling Degree Days 6    
Growing Degree Days 20 (Base 50)    
Moisture  
Dew Point 50 °F    
Average Humidity 55    
Maximum Humidity 87    
Minimum Humidity 29    
Precipitation  
Precipitation 0.00 in - - ()
Sea Level Pressure  
Sea Level Pressure 29.89 in    
Wind  
Wind Speed 5 mph (SW)    
Max Wind Speed 17 mph    
Max Gust Speed 26 mph    
Visibility 10 miles    
Events      
Averages and records for this station are not official NWS values.
T = Trace of Precipitation, MM = Missing Value Source: NWS Daily Summary

Daily Weather History Graph

Daily Weather History Graph

Search for Another Location

Airport or City:

Trip Planner

Search our weather history database for the weather conditions in past years. The results will help you decide how hot, cold, wet, or windy it might be!

Date:

Astronomy

Sep. 24, 2013 Rise Set
Actual Time 6:57 AM PDT 7:01 PM PDT
Civil Twilight 6:31 AM PDT 7:27 PM PDT
Nautical Twilight 6:00 AM PDT 7:58 PM PDT
Astronomical Twilight 5:29 AM PDT 8:29 PM PDT
Moon 10:27 PM PDT (9/24) 12:12 PM PDT (9/24)
Length of Visible Light 12h 56m
Length of Day
12h 03m
Waning Gibbous, 72% of the Moon is Illuminated
Sep 24
Waning Gibbous
Sep 26
Last Quarter
Oct 4
New
Oct 11
First Quarter
Oct 18
Full

Hourly Weather History & Observations

Time (PDT) Temp. Dew Point Humidity Pressure Visibility Wind Dir Wind Speed Gust Speed Precip Events Conditions
12:53 AM 61.0 °F 57.0 °F 87% 29.90 in 10.0 mi Calm Calm - N/A   Clear
1:53 AM 64.0 °F 55.9 °F 75% 29.90 in 10.0 mi Calm Calm - N/A   Clear
2:53 AM 62.1 °F 55.9 °F 80% 29.89 in 10.0 mi SW 4.6 mph - N/A   Clear
3:53 AM 62.1 °F 55.0 °F 78% 29.90 in 10.0 mi SW 8.1 mph - N/A   Clear
4:53 AM 60.1 °F 53.1 °F 78% 29.90 in 10.0 mi WSW 4.6 mph - N/A   Clear
5:53 AM 62.1 °F 52.0 °F 70% 29.89 in 10.0 mi SSW 9.2 mph - N/A   Clear
6:53 AM 63.0 °F 51.1 °F 65% 29.91 in 10.0 mi SSW 8.1 mph 17.3 mph N/A   Clear
7:53 AM 64.0 °F 51.1 °F 63% 29.93 in 10.0 mi Calm Calm - N/A   Clear
8:53 AM 63.0 °F 52.0 °F 67% 29.93 in 10.0 mi SSW 6.9 mph - N/A   Clear
9:53 AM 68.0 °F 52.0 °F 56% 29.95 in 10.0 mi SSW 8.1 mph - N/A   Clear
10:53 AM 72.0 °F 51.1 °F 48% 29.95 in 10.0 mi South 6.9 mph - N/A   Clear
11:53 AM 75.9 °F 48.0 °F 37% 29.94 in 10.0 mi Variable 3.5 mph - N/A   Clear
12:53 PM 80.1 °F 45.0 °F 29% 29.94 in 10.0 mi NNW 9.2 mph - N/A   Clear
1:53 PM 80.1 °F 46.0 °F 30% 29.90 in 10.0 mi West 8.1 mph - N/A   Clear
2:53 PM 81.0 °F 46.0 °F 29% 29.88 in 10.0 mi Variable 5.8 mph 16.1 mph N/A   Clear
3:53 PM 79.0 °F 50.0 °F 36% 29.86 in 10.0 mi South 17.3 mph 24.2 mph N/A   Clear
4:53 PM 75.9 °F 51.1 °F 42% 29.86 in 10.0 mi SW 13.8 mph 26.5 mph N/A   Clear
5:53 PM 73.0 °F 50.0 °F 44% 29.85 in 10.0 mi SSW 12.7 mph 20.7 mph N/A   Clear
6:53 PM 70.0 °F 50.0 °F 49% 29.84 in 10.0 mi SW 9.2 mph - N/A   Clear
7:53 PM 68.0 °F 48.0 °F 49% 29.83 in 10.0 mi West 8.1 mph - N/A   Clear
8:53 PM 66.0 °F 46.9 °F 50% 29.84 in 10.0 mi West 10.4 mph 19.6 mph N/A   Clear
9:53 PM 64.0 °F 48.0 °F 56% 29.86 in 10.0 mi West 10.4 mph 20.7 mph N/A   Clear
10:53 PM 62.1 °F 46.0 °F 56% 29.87 in 10.0 mi Calm Calm - N/A   Clear
11:53 PM 60.1 °F 45.0 °F 57% 29.87 in 10.0 mi Calm Calm - N/A   Clear